| time (UTC) | temp F | wind direction | speed MPH | gust MPH | rain 1hr in | rain 24hr in | rain mn in | humidity % | barometer mb |
| 20260902202935 | 83 | 196 | 13.0 | 22.0 | 0.00 | 0.00 | 0.00 | 22 | 1015.2 |
| 20260902202431 | 83 | 216 | 7.0 | 24.0 | 0.00 | 0.00 | 0.00 | 22 | 1015.1 |
| 20260902201928 | 83 | 203 | 12.0 | 17.0 | 0.00 | 0.00 | 0.00 | 23 | 1015.4 |
| 20260902201423 | 82 | 211 | 4.0 | 15.0 | 0.00 | 0.00 | 0.00 | 22 | 1015.4 |
| 20260902200922 | 82 | 143 | 6.0 | 23.0 | 0.00 | 0.00 | 0.00 | 23 | 1015.4 |
| 20260902200418 | 82 | 156 | 28.0 | 32.0 | 0.00 | 0.00 | 0.00 | 24 | 1015.6 |
| 20260902195914 | 82 | 158 | 22.0 | 26.0 | 0.00 | 0.00 | 0.00 | 22 | 1015.6 |
| 20260902195414 | 82 | 188 | 9.0 | 18.0 | 0.00 | 0.00 | 0.00 | 25 | 1016.0 |
| 20260902194908 | 82 | 192 | 13.0 | 21.0 | 0.00 | 0.00 | 0.00 | 25 | 1015.6 |
| 20260902194409 | 82 | 175 | 14.0 | 22.0 | 0.00 | 0.00 | 0.00 | 24 | 1015.9 |
| 20260902193909 | 82 | 169 | 8.0 | 19.0 | 0.00 | 0.00 | 0.00 | 25 | 1015.9 |
| 20260902193406 | 82 | 156 | 14.0 | 18.0 | 0.00 | 0.00 | 0.00 | 26 | 1015.7 |
| 20260902192904 | 81 | 171 | 13.0 | 24.0 | 0.00 | 0.00 | 0.00 | 26 | 1015.9 |
| 20260902192403 | 81 | 168 | 19.0 | 27.0 | 0.00 | 0.00 | 0.00 | 27 | 1016.2 |
| 20260902191902 | 81 | 153 | 5.0 | 22.0 | 0.00 | 0.00 | 0.00 | 27 | 1016.2 |
| 20260902191358 | 81 | 191 | 10.0 | 21.0 | 0.00 | 0.00 | 0.00 | 26 | 1016.4 |
| 20260902190858 | 81 | 167 | 11.0 | 24.0 | 0.00 | 0.00 | 0.00 | 28 | 1016.3 |
| 20260902190353 | 81 | 159 | 17.0 | 30.0 | 0.00 | 0.00 | 0.00 | 25 | 1016.3 |
| 20260902185849 | 82 | 151 | 12.0 | 19.0 | 0.00 | 0.00 | 0.00 | 27 | 1016.7 |
| 20260902185344 | 82 | 173 | 6.0 | 22.0 | 0.00 | 0.00 | 0.00 | 27 | 1016.9 |
| 20260902184840 | 82 | 172 | 10.0 | 19.0 | 0.00 | 0.00 | 0.00 | 28 | 1016.9 |
| 20260902184335 | 81 | 142 | 7.0 | 15.0 | 0.00 | 0.00 | 0.00 | 29 | 1016.8 |
| 20260902183830 | 80 | 143 | 17.0 | 26.0 | 0.00 | 0.00 | 0.00 | 29 | 1016.6 |
| 20260902183327 | 81 | 176 | 14.0 | 28.0 | 0.00 | 0.00 | 0.00 | 29 | 1017.0 |
| 20260902182822 | 82 | 160 | 11.0 | 16.0 | 0.00 | 0.00 | 0.00 | 30 | 1016.9 |
| 20260902182319 | 81 | 174 | 9.0 | 15.0 | 0.00 | 0.00 | 0.00 | 31 | 1016.7 |
| 20260902181815 | 81 | 160 | 9.0 | 15.0 | 0.00 | 0.00 | 0.00 | 30 | 1016.8 |
| 20260902181309 | 81 | 213 | 21.0 | 23.0 | 0.00 | 0.00 | 0.00 | 29 | 1016.9 |
| 20260902180803 | 80 | 157 | 8.0 | 16.0 | 0.00 | 0.00 | 0.00 | 32 | 1016.8 |
| 20260902180259 | 80 | 250 | 2.0 | 19.0 | 0.00 | 0.00 | 0.00 | 32 | 1016.9 |
| 20260902175754 | 81 | 161 | 19.0 | 21.0 | 0.00 | 0.00 | 0.00 | 31 | 1017.1 |
| 20260902175250 | 81 | 174 | 14.0 | 22.0 | 0.00 | 0.00 | 0.00 | 30 | 1016.9 |
| 20260902174745 | 80 | 221 | 4.0 | 18.0 | 0.00 | 0.00 | 0.00 | 32 | 1017.3 |
| 20260902174242 | 80 | 174 | 17.0 | 20.0 | 0.00 | 0.00 | 0.00 | 32 | 1017.4 |
| 20260902173737 | 79 | 170 | 13.0 | 22.0 | 0.00 | 0.00 | 0.00 | 32 | 1017.3 |
| 20260902173236 | 79 | 168 | 15.0 | 25.0 | 0.00 | 0.00 | 0.00 | 33 | 1017.1 |
| 20260902172731 | 79 | 177 | 15.0 | 29.0 | 0.00 | 0.00 | 0.00 | 32 | 1017.5 |
| 20260902172231 | 78 | 210 | 17.0 | 23.0 | 0.00 | 0.00 | 0.00 | 35 | 1017.4 |
| 20260902171726 | 77 | 170 | 10.0 | 17.0 | 0.00 | 0.00 | 0.00 | 36 | 1017.4 |
| 20260902171221 | 74 | 167 | 15.0 | 17.0 | 0.00 | 0.00 | 0.00 | 40 | 1017.3 |
| 20260902170718 | 74 | 180 | 9.0 | 13.0 | 0.00 | 0.00 | 0.00 | 40 | 1017.4 |
| 20260902170214 | 74 | 191 | 4.0 | 9.0 | 0.00 | 0.00 | 0.00 | 40 | 1017.3 |
| 20260902165714 | 73 | 142 | 10.0 | 15.0 | 0.00 | 0.00 | 0.00 | 41 | 1017.4 |
| 20260902165208 | 73 | 152 | 5.0 | 16.0 | 0.00 | 0.00 | 0.00 | 41 | 1017.3 |
| 20260902164703 | 73 | 154 | 5.0 | 14.0 | 0.00 | 0.00 | 0.00 | 41 | 1017.3 |
| 20260902164202 | 75 | 139 | 9.0 | 20.0 | 0.00 | 0.00 | 0.00 | 39 | 1017.1 |
| 20260902163657 | 75 | 122 | 9.0 | 17.0 | 0.00 | 0.00 | 0.00 | 40 | 1016.9 |
| 20260902163157 | 75 | 135 | 15.0 | 19.0 | 0.00 | 0.00 | 0.00 | 39 | 1017.3 |
| 20260902162655 | 76 | 121 | 17.0 | 21.0 | 0.00 | 0.00 | 0.00 | 38 | 1017.3 |
| 20260902162150 | 75 | 178 | 5.0 | 12.0 | 0.00 | 0.00 | 0.00 | 39 | 1017.3 |
| 20260902161645 | 75 | 116 | 8.0 | 16.0 | 0.00 | 0.00 | 0.00 | 39 | 1017.5 |
| 20260902161141 | 74 | 148 | 9.0 | 19.0 | 0.00 | 0.00 | 0.00 | 40 | 1017.6 |
| 20260902160638 | 74 | 142 | 7.0 | 23.0 | 0.00 | 0.00 | 0.00 | 39 | 1017.4 |
| 20260902160132 | 74 | 135 | 9.0 | 21.0 | 0.00 | 0.00 | 0.00 | 39 | 1017.1 |
| 20260902155630 | 73 | 166 | 8.0 | 15.0 | 0.00 | 0.00 | 0.00 | 41 | 1017.1 |
| 20260902155129 | 71 | 127 | 13.0 | 17.0 | 0.00 | 0.00 | 0.00 | 42 | 1017.4 |
| 20260902154625 | 72 | 165 | 8.0 | 20.0 | 0.00 | 0.00 | 0.00 | 40 | 1017.4 |
| 20260902154119 | 72 | 153 | 10.0 | 21.0 | 0.00 | 0.00 | 0.00 | 41 | 1017.6 |
| 20260902153619 | 71 | 129 | 18.0 | 27.0 | 0.00 | 0.00 | 0.00 | 41 | 1017.7 |
| 20260902153115 | 71 | 136 | 10.0 | 20.0 | 0.00 | 0.00 | 0.00 | 42 | 1017.3 |
| 20260902152611 | 70 | 123 | 12.0 | 15.0 | 0.00 | 0.00 | 0.00 | 42 | 1017.3 |
| 20260902152106 | 70 | 172 | 9.0 | 14.0 | 0.00 | 0.00 | 0.00 | 43 | 1017.0 |
| 20260902151602 | 70 | 148 | 13.0 | 18.0 | 0.00 | 0.00 | 0.00 | 43 | 1017.0 |
| 20260902151101 | 69 | 165 | 13.0 | 21.0 | 0.00 | 0.00 | 0.00 | 44 | 1017.1 |
| 20260902150556 | 69 | 180 | 5.0 | 14.0 | 0.00 | 0.00 | 0.00 | 46 | 1017.1 |
| 20260902150052 | 69 | 156 | 9.0 | 20.0 | 0.00 | 0.00 | 0.00 | 45 | 1016.9 |
| 20260902145552 | 69 | 152 | 11.0 | 19.0 | 0.00 | 0.00 | 0.00 | 45 | 1017.0 |
| 20260902145051 | 69 | 127 | 14.0 | 18.0 | 0.00 | 0.00 | 0.00 | 45 | 1017.0 |
| 20260902144549 | 69 | 135 | 8.0 | 14.0 | 0.00 | 0.00 | 0.00 | 45 | 1016.9 |
| 20260902144048 | 69 | 165 | 6.0 | 13.0 | 0.00 | 0.00 | 0.00 | 45 | 1017.0 |
| 20260902143543 | 69 | 167 | 4.0 | 20.0 | 0.00 | 0.00 | 0.00 | 44 | 1017.0 |
| 20260902143039 | 69 | 168 | 5.0 | 19.0 | 0.00 | 0.00 | 0.00 | 44 | 1017.0 |
| 20260902142534 | 69 | 145 | 8.0 | 22.0 | 0.00 | 0.00 | 0.00 | 45 | 1017.0 |
| 20260902142031 | 68 | 153 | 8.0 | 23.0 | 0.00 | 0.00 | 0.00 | 45 | 1016.8 |
| 20260902141530 | 68 | 135 | 22.0 | 23.0 | 0.00 | 0.00 | 0.00 | 47 | 1016.8 |
| 20260902141026 | 68 | 136 | 10.0 | 20.0 | 0.00 | 0.00 | 0.00 | 48 | 1016.7 |
| 20260902140525 | 68 | 147 | 9.0 | 20.0 | 0.00 | 0.00 | 0.00 | 48 | 1016.9 |
| 20260902140021 | 67 | 157 | 11.0 | 21.0 | 0.00 | 0.00 | 0.00 | 49 | 1016.6 |
| 20260902135520 | 67 | 163 | 12.0 | 18.0 | 0.00 | 0.00 | 0.00 | 49 | 1016.6 |
| 20260902135015 | 67 | 163 | 13.0 | 18.0 | 0.00 | 0.00 | 0.00 | 50 | 1016.4 |
| 20260902134511 | 67 | 144 | 13.0 | 24.0 | 0.00 | 0.00 | 0.00 | 49 | 1016.4 |
| 20260902134011 | 67 | 138 | 11.0 | 20.0 | 0.00 | 0.00 | 0.00 | 48 | 1016.7 |
| 20260902133506 | 68 | 135 | 10.0 | 17.0 | 0.00 | 0.00 | 0.00 | 48 | 1016.7 |
| 20260902133006 | 68 | 141 | 16.0 | 18.0 | 0.00 | 0.00 | 0.00 | 47 | 1016.8 |
| 20260902132501 | 68 | 145 | 16.0 | 18.0 | 0.00 | 0.00 | 0.00 | 46 | 1016.6 |
| 20260902131956 | 69 | 163 | 11.0 | 15.0 | 0.00 | 0.00 | 0.00 | 45 | 1016.4 |
| 20260902131453 | 69 | 159 | 11.0 | 20.0 | 0.00 | 0.00 | 0.00 | 44 | 1016.6 |
| 20260902130952 | 69 | 163 | 9.0 | 17.0 | 0.00 | 0.00 | 0.00 | 44 | 1016.6 |
| 20260902130448 | 69 | 144 | 17.0 | 18.0 | 0.00 | 0.00 | 0.00 | 44 | 1016.6 |
| 20260902125943 | 69 | 160 | 8.0 | 19.0 | 0.00 | 0.00 | 0.00 | 44 | 1016.4 |
| 20260902125439 | 69 | 164 | 13.0 | 17.0 | 0.00 | 0.00 | 0.00 | 44 | 1016.6 |
| 20260902124935 | 69 | 173 | 4.0 | 17.0 | 0.00 | 0.00 | 0.00 | 44 | 1016.4 |
| 20260902124431 | 68 | 154 | 16.0 | 17.0 | 0.00 | 0.00 | 0.00 | 45 | 1016.3 |
| 20260902123925 | 68 | 152 | 5.0 | 16.0 | 0.00 | 0.00 | 0.00 | 45 | 1016.2 |
| 20260902123422 | 68 | 146 | 15.0 | 20.0 | 0.00 | 0.00 | 0.00 | 45 | 1016.4 |
| 20260902122920 | 68 | 167 | 7.0 | 15.0 | 0.00 | 0.00 | 0.00 | 46 | 1016.4 |
| 20260902122416 | 68 | 170 | 7.0 | 14.0 | 0.00 | 0.00 | 0.00 | 46 | 1016.4 |
| 20260902121911 | 68 | 150 | 9.0 | 15.0 | 0.00 | 0.00 | 0.00 | 46 | 1016.4 |
| 20260902121406 | 68 | 167 | 9.0 | 17.0 | 0.00 | 0.00 | 0.00 | 47 | 1016.4 |
| 20260902120901 | 67 | 151 | 13.0 | 20.0 | 0.00 | 0.00 | 0.00 | 47 | 1016.4 |
| 20260902120358 | 67 | 152 | 17.0 | 19.0 | 0.00 | 0.00 | 0.00 | 47 | 1016.7 |
| 20260902115858 | 68 | 140 | 8.0 | 18.0 | 0.00 | 0.00 | 0.00 | 48 | 1016.3 |
| 20260902115354 | 68 | 177 | 10.0 | 19.0 | 0.00 | 0.00 | 0.00 | 47 | 1016.1 |
| 20260902114850 | 68 | 170 | 7.0 | 16.0 | 0.00 | 0.00 | 0.00 | 46 | 1016.0 |
| 20260902114346 | 68 | 173 | 7.0 | 20.0 | 0.00 | 0.00 | 0.00 | 46 | 1016.1 |
| 20260902113845 | 68 | 157 | 9.0 | 18.0 | 0.00 | 0.00 | 0.00 | 47 | 1016.2 |
| 20260902113341 | 68 | 162 | 9.0 | 21.0 | 0.00 | 0.00 | 0.00 | 47 | 1016.1 |
| 20260902112840 | 68 | 152 | 9.0 | 16.0 | 0.00 | 0.00 | 0.00 | 47 | 1016.3 |
| 20260902112337 | 68 | 141 | 10.0 | 17.0 | 0.00 | 0.00 | 0.00 | 47 | 1016.4 |
| 20260902111833 | 69 | 162 | 19.0 | 22.0 | 0.00 | 0.00 | 0.00 | 46 | 1016.2 |
| 20260902111329 | 69 | 163 | 15.0 | 20.0 | 0.00 | 0.00 | 0.00 | 45 | 1016.0 |
| 20260902110824 | 69 | 146 | 13.0 | 18.0 | 0.00 | 0.00 | 0.00 | 45 | 1016.2 |
| 20260902110320 | 69 | 148 | 16.0 | 19.0 | 0.00 | 0.00 | 0.00 | 44 | 1016.1 |
| 20260902105820 | 69 | 149 | 19.0 | 19.0 | 0.00 | 0.00 | 0.00 | 44 | 1016.2 |
| 20260902105315 | 69 | 163 | 12.0 | 22.0 | 0.00 | 0.00 | 0.00 | 44 | 1016.1 |
| 20260902104810 | 69 | 158 | 15.0 | 20.0 | 0.00 | 0.00 | 0.00 | 44 | 1016.1 |
| 20260902104306 | 69 | 175 | 12.0 | 19.0 | 0.00 | 0.00 | 0.00 | 43 | 1016.1 |
| 20260902103800 | 69 | 159 | 5.0 | 15.0 | 0.00 | 0.00 | 0.00 | 43 | 1016.0 |
| 20260902103300 | 69 | 164 | 6.0 | 17.0 | 0.00 | 0.00 | 0.00 | 43 | 1016.0 |
| 20260902102755 | 69 | 182 | 9.0 | 17.0 | 0.00 | 0.00 | 0.00 | 42 | 1016.1 |
| 20260902102253 | 69 | 148 | 7.0 | 22.0 | 0.00 | 0.00 | 0.00 | 42 | 1016.0 |
| 20260902101748 | 70 | 150 | 9.0 | 15.0 | 0.00 | 0.00 | 0.00 | 41 | 1015.9 |
| 20260902101243 | 69 | 155 | 17.0 | 18.0 | 0.00 | 0.00 | 0.00 | 41 | 1016.0 |
| 20260902100742 | 69 | 180 | 10.0 | 17.0 | 0.00 | 0.00 | 0.00 | 41 | 1016.2 |
| 20260902100237 | 69 | 156 | 13.0 | 16.0 | 0.00 | 0.00 | 0.00 | 41 | 1016.2 |
| 20260902095737 | 69 | 162 | 11.0 | 14.0 | 0.00 | 0.00 | 0.00 | 41 | 1016.1 |
| 20260902095232 | 69 | 166 | 9.0 | 14.0 | 0.00 | 0.00 | 0.00 | 41 | 1015.9 |
| 20260902094726 | 70 | 158 | 9.0 | 13.0 | 0.00 | 0.00 | 0.00 | 41 | 1016.1 |
| 20260902094223 | 69 | 179 | 8.0 | 15.0 | 0.00 | 0.00 | 0.00 | 41 | 1016.3 |
| 20260902093722 | 69 | 156 | 7.0 | 13.0 | 0.00 | 0.00 | 0.00 | 42 | 1016.4 |
| 20260902093218 | 69 | 163 | 6.0 | 13.0 | 0.00 | 0.00 | 0.00 | 41 | 1016.3 |
| 20260902092717 | 69 | 161 | 10.0 | 14.0 | 0.00 | 0.00 | 0.00 | 40 | 1016.4 |
| 20260902092212 | 69 | 160 | 8.0 | 15.0 | 0.00 | 0.00 | 0.00 | 41 | 1016.3 |
| 20260902091712 | 69 | 153 | 13.0 | 16.0 | 0.00 | 0.00 | 0.00 | 41 | 1016.4 |
| 20260902091208 | 69 | 147 | 7.0 | 17.0 | 0.00 | 0.00 | 0.00 | 42 | 1016.3 |
| 20260902090704 | 69 | 183 | 12.0 | 16.0 | 0.00 | 0.00 | 0.00 | 42 | 1016.6 |
| 20260902090204 | 69 | 167 | 9.0 | 15.0 | 0.00 | 0.00 | 0.00 | 41 | 1016.6 |
| 20260902085703 | 69 | 165 | 8.0 | 17.0 | 0.00 | 0.00 | 0.00 | 42 | 1016.6 |
| 20260902085159 | 69 | 163 | 8.0 | 16.0 | 0.00 | 0.00 | 0.00 | 42 | 1016.6 |
| 20260902084654 | 69 | 167 | 9.0 | 15.0 | 0.00 | 0.00 | 0.00 | 42 | 1016.4 |
| 20260902084151 | 70 | 170 | 9.0 | 15.0 | 0.00 | 0.00 | 0.00 | 41 | 1016.4 |
| 20260902083645 | 70 | 180 | 7.0 | 15.0 | 0.00 | 0.00 | 0.00 | 40 | 1016.6 |
| 20260902083144 | 70 | 159 | 8.0 | 16.0 | 0.00 | 0.00 | 0.00 | 40 | 1016.6 |
| 20260902082640 | 70 | 173 | 11.0 | 17.0 | 0.00 | 0.00 | 0.00 | 42 | 1016.6 |
| 20260902082137 | 70 | 170 | 10.0 | 14.0 | 0.00 | 0.00 | 0.00 | 41 | 1016.6 |
| 20260902081633 | 69 | 166 | 9.0 | 17.0 | 0.00 | 0.00 | 0.00 | 43 | 1016.4 |
| 20260902081127 | 69 | 180 | 9.0 | 18.0 | 0.00 | 0.00 | 0.00 | 43 | 1016.6 |
| 20260902080623 | 69 | 169 | 7.0 | 15.0 | 0.00 | 0.00 | 0.00 | 44 | 1016.7 |
| 20260902080120 | 69 | 170 | 7.0 | 17.0 | 0.00 | 0.00 | 0.00 | 45 | 1016.8 |
| 20260902075619 | 69 | 169 | 11.0 | 15.0 | 0.00 | 0.00 | 0.00 | 45 | 1016.8 |
| 20260902075115 | 69 | 162 | 7.0 | 15.0 | 0.00 | 0.00 | 0.00 | 45 | 1016.4 |
| 20260902074610 | 69 | 175 | 8.0 | 14.0 | 0.00 | 0.00 | 0.00 | 46 | 1016.7 |
| 20260902074105 | 69 | 153 | 16.0 | 17.0 | 0.00 | 0.00 | 0.00 | 47 | 1016.7 |
| 20260902073601 | 69 | 177 | 10.0 | 15.0 | 0.00 | 0.00 | 0.00 | 47 | 1016.6 |
| 20260902073057 | 69 | 164 | 8.0 | 18.0 | 0.00 | 0.00 | 0.00 | 46 | 1016.6 |
| 20260902072552 | 69 | 159 | 13.0 | 17.0 | 0.00 | 0.00 | 0.00 | 47 | 1016.2 |
| 20260902072049 | 70 | 153 | 9.0 | 20.0 | 0.00 | 0.00 | 0.00 | 46 | 1016.4 |
| 20260902071548 | 70 | 169 | 13.0 | 17.0 | 0.00 | 0.00 | 0.00 | 46 | 1016.4 |
| 20260902071045 | 70 | 162 | 11.0 | 18.0 | 0.00 | 0.00 | 0.00 | 46 | 1016.4 |
| 20260902070540 | 70 | 151 | 8.0 | 17.0 | 0.00 | 0.00 | 0.00 | 47 | 1016.4 |
| 20260902070035 | 70 | 158 | 8.0 | 18.0 | 0.00 | 0.00 | 0.00 | 46 | 1016.3 |
| 20260902065529 | 70 | 135 | 9.0 | 18.0 | 0.00 | 0.00 | 0.00 | 47 | 1016.3 |
| 20260902065024 | 70 | 155 | 13.0 | 17.0 | 0.00 | 0.00 | 0.00 | 47 | 1016.2 |
| 20260902064520 | 70 | 158 | 7.0 | 21.0 | 0.00 | 0.00 | 0.00 | 48 | 1016.3 |
| 20260902064016 | 70 | 157 | 10.0 | 17.0 | 0.00 | 0.00 | 0.00 | 48 | 1016.2 |
| 20260902063515 | 70 | 140 | 13.0 | 15.0 | 0.00 | 0.00 | 0.00 | 48 | 1016.2 |
| 20260902063011 | 70 | 154 | 11.0 | 16.0 | 0.00 | 0.00 | 0.00 | 48 | 1016.1 |
| 20260902062509 | 70 | 178 | 9.0 | 16.0 | 0.00 | 0.00 | 0.00 | 49 | 1016.1 |
| 20260902062004 | 71 | 152 | 13.0 | 17.0 | 0.00 | 0.00 | 0.00 | 48 | 1016.1 |
| 20260902061459 | 71 | 157 | 7.0 | 16.0 | 0.00 | 0.00 | 0.00 | 49 | 1016.0 |
| 20260902060955 | 70 | 175 | 6.0 | 16.0 | 0.00 | 0.00 | 0.00 | 49 | 1016.2 |
| 20260902060451 | 70 | 160 | 10.0 | 17.0 | 0.00 | 0.00 | 0.00 | 49 | 1016.2 |
| 20260902055947 | 70 | 156 | 10.0 | 13.0 | 0.00 | 0.00 | 0.00 | 51 | 1016.0 |
| 20260902055437 | 70 | 184 | 9.0 | 13.0 | 0.00 | 0.00 | 0.00 | 51 | 1016.3 |
| 20260902054932 | 70 | 189 | 8.0 | 17.0 | 0.00 | 0.00 | 0.00 | 50 | 1016.2 |
| 20260902054427 | 71 | 182 | 7.0 | 17.0 | 0.00 | 0.00 | 0.00 | 49 | 1016.2 |
| 20260902053923 | 71 | 147 | 11.0 | 15.0 | 0.00 | 0.00 | 0.00 | 49 | 1016.2 |
| 20260902053418 | 71 | 159 | 11.0 | 15.0 | 0.00 | 0.00 | 0.00 | 48 | 1016.2 |
| 20260902052917 | 71 | 148 | 9.0 | 17.0 | 0.00 | 0.00 | 0.00 | 48 | 1016.4 |
| 20260902052412 | 71 | 150 | 12.0 | 15.0 | 0.00 | 0.00 | 0.00 | 48 | 1016.4 |
| 20260902051907 | 71 | 167 | 11.0 | 15.0 | 0.00 | 0.00 | 0.00 | 46 | 1016.2 |
| 20260902051402 | 71 | 155 | 13.0 | 14.0 | 0.00 | 0.00 | 0.00 | 46 | 1016.2 |
| 20260902050901 | 72 | 160 | 7.0 | 15.0 | 0.00 | 0.00 | 0.00 | 45 | 1016.2 |
| 20260902050400 | 72 | 175 | 8.0 | 18.0 | 0.00 | 0.00 | 0.00 | 45 | 1016.2 |
| 20260902045856 | 72 | 159 | 5.0 | 15.0 | 0.00 | 0.00 | 0.00 | 45 | 1016.3 |
| 20260902045351 | 72 | 157 | 13.0 | 13.0 | 0.00 | 0.00 | 0.00 | 44 | 1016.4 |
| 20260902044848 | 72 | 159 | 9.0 | 16.0 | 0.00 | 0.00 | 0.00 | 44 | 1016.4 |
| 20260902044343 | 72 | 166 | 8.0 | 15.0 | 0.00 | 0.00 | 0.00 | 44 | 1016.1 |
| 20260902043842 | 72 | 145 | 13.0 | 17.0 | 0.00 | 0.00 | 0.00 | 44 | 1016.3 |
| 20260902043339 | 73 | 165 | 7.0 | 14.0 | 0.00 | 0.00 | 0.00 | 44 | 1016.6 |
| 20260902042838 | 73 | 154 | 14.0 | 15.0 | 0.00 | 0.00 | 0.00 | 43 | 1016.4 |
| 20260902042337 | 73 | 159 | 11.0 | 14.0 | 0.00 | 0.00 | 0.00 | 43 | 1016.3 |
| 20260902041833 | 73 | 153 | 9.0 | 11.0 | 0.00 | 0.00 | 0.00 | 42 | 1016.4 |
| 20260902041333 | 73 | 161 | 9.0 | 13.0 | 0.00 | 0.00 | 0.00 | 42 | 1016.4 |
| 20260902040832 | 73 | 171 | 7.0 | 14.0 | 0.00 | 0.00 | 0.00 | 41 | 1016.3 |
| 20260902040328 | 73 | 160 | 9.0 | 15.0 | 0.00 | 0.00 | 0.00 | 41 | 1016.3 |
| 20260902035826 | 73 | 170 | 6.0 | 13.0 | 0.00 | 0.00 | 0.00 | 42 | 1016.3 |
| 20260902035322 | 73 | 155 | 6.0 | 11.0 | 0.00 | 0.00 | 0.00 | 41 | 1016.3 |
| 20260902034821 | 73 | 158 | 6.0 | 15.0 | 0.00 | 0.00 | 0.00 | 41 | 1016.0 |
| 20260902034316 | 73 | 173 | 7.0 | 13.0 | 0.00 | 0.00 | 0.00 | 42 | 1016.2 |
| 20260902033814 | 73 | 166 | 6.0 | 14.0 | 0.00 | 0.00 | 0.00 | 42 | 1015.9 |
| 20260902033310 | 73 | 172 | 8.0 | 13.0 | 0.00 | 0.00 | 0.00 | 42 | 1015.9 |
| 20260902032808 | 73 | 175 | 9.0 | 12.0 | 0.00 | 0.00 | 0.00 | 42 | 1016.0 |
| 20260902032306 | 73 | 181 | 10.0 | 12.0 | 0.00 | 0.00 | 0.00 | 42 | 1015.7 |
| 20260902031803 | 73 | 165 | 9.0 | 12.0 | 0.00 | 0.00 | 0.00 | 42 | 1015.9 |
| 20260902031259 | 73 | 180 | 9.0 | 10.0 | 0.00 | 0.00 | 0.00 | 42 | 1015.6 |
| 20260902030754 | 73 | 149 | 9.0 | 11.0 | 0.00 | 0.00 | 0.00 | 42 | 1015.7 |
| 20260902030249 | 72 | 176 | 8.0 | 13.0 | 0.00 | 0.00 | 0.00 | 42 | 1015.9 |
| 20260902025748 | 73 | 157 | 8.0 | 12.0 | 0.00 | 0.00 | 0.00 | 42 | 1015.7 |
| 20260902025244 | 73 | 196 | 6.0 | 9.0 | 0.00 | 0.00 | 0.00 | 42 | 1015.6 |
| 20260902024738 | 73 | 172 | 6.0 | 14.0 | 0.00 | 0.00 | 0.00 | 42 | 1015.4 |
| 20260902024234 | 73 | 157 | 11.0 | 13.0 | 0.00 | 0.00 | 0.00 | 42 | 1015.3 |
| 20260902023730 | 73 | 177 | 9.0 | 12.0 | 0.00 | 0.00 | 0.00 | 42 | 1015.3 |
| 20260902023224 | 73 | 154 | 10.0 | 11.0 | 0.00 | 0.00 | 0.00 | 42 | 1015.3 |
| 20260902022724 | 73 | 172 | 3.0 | 12.0 | 0.00 | 0.00 | 0.00 | 42 | 1015.2 |
| 20260902022220 | 74 | 160 | 9.0 | 15.0 | 0.00 | 0.00 | 0.00 | 42 | 1015.1 |
| 20260902021716 | 74 | 167 | 8.0 | 12.0 | 0.00 | 0.00 | 0.00 | 41 | 1015.3 |
| 20260902021215 | 74 | 170 | 11.0 | 12.0 | 0.00 | 0.00 | 0.00 | 41 | 1015.3 |
| 20260902020711 | 75 | 165 | 10.0 | 13.0 | 0.00 | 0.00 | 0.00 | 40 | 1015.1 |
| 20260902020207 | 75 | 172 | 6.0 | 13.0 | 0.00 | 0.00 | 0.00 | 40 | 1015.3 |
| 20260902015702 | 75 | 141 | 7.0 | 15.0 | 0.00 | 0.00 | 0.00 | 40 | 1015.2 |
| 20260902015159 | 75 | 140 | 8.0 | 14.0 | 0.00 | 0.00 | 0.00 | 40 | 1015.2 |
| 20260902014654 | 75 | 160 | 13.0 | 15.0 | 0.00 | 0.00 | 0.00 | 39 | 1015.4 |
| 20260902014150 | 76 | 153 | 7.0 | 15.0 | 0.00 | 0.00 | 0.00 | 40 | 1015.2 |
| 20260902013649 | 76 | 163 | 11.0 | 13.0 | 0.00 | 0.00 | 0.00 | 39 | 1015.3 |
| 20260902013145 | 76 | 158 | 13.0 | 15.0 | 0.00 | 0.00 | 0.00 | 39 | 1015.3 |
| 20260902012640 | 76 | 179 | 10.0 | 16.0 | 0.00 | 0.00 | 0.00 | 39 | 1015.2 |
| 20260902012136 | 77 | 157 | 10.0 | 11.0 | 0.00 | 0.00 | 0.00 | 40 | 1015.4 |
| 20260902011631 | 77 | 141 | 10.0 | 11.0 | 0.00 | 0.00 | 0.00 | 39 | 1015.5 |
| 20260902011131 | 78 | 158 | 4.0 | 13.0 | 0.00 | 0.00 | 0.00 | 39 | 1015.5 |
| 20260902010630 | 78 | 167 | 9.0 | 18.0 | 0.00 | 0.00 | 0.00 | 37 | 1015.5 |
| 20260902010126 | 79 | 173 | 11.0 | 16.0 | 0.00 | 0.00 | 0.00 | 36 | 1015.6 |
| 20260902005624 | 79 | 157 | 9.0 | 15.0 | 0.00 | 0.00 | 0.00 | 37 | 1015.7 |
| 20260902005120 | 79 | 169 | 15.0 | 16.0 | 0.00 | 0.00 | 0.00 | 38 | 1015.7 |
| 20260902004619 | 79 | 143 | 2.0 | 18.0 | 0.00 | 0.00 | 0.00 | 38 | 1015.5 |
| 20260902004115 | 77 | 155 | 7.0 | 15.0 | 0.00 | 0.00 | 0.00 | 39 | 1015.6 |
| 20260902003610 | 76 | 170 | 7.0 | 14.0 | 0.00 | 0.00 | 0.00 | 40 | 1015.7 |
| 20260902003105 | 76 | 163 | 14.0 | 15.0 | 0.00 | 0.00 | 0.00 | 41 | 1015.6 |
| 20260902002601 | 76 | 170 | 3.0 | 13.0 | 0.00 | 0.00 | 0.00 | 40 | 1015.6 |
| 20260902002055 | 77 | 140 | 10.0 | 12.0 | 0.00 | 0.00 | 0.00 | 40 | 1015.7 |
| 20260902001550 | 77 | 148 | 9.0 | 13.0 | 0.00 | 0.00 | 0.00 | 39 | 1015.7 |
| 20260902001045 | 77 | 162 | 11.0 | 12.0 | 0.00 | 0.00 | 0.00 | 39 | 1015.5 |
| 20260902000540 | 78 | 150 | 3.0 | 18.0 | 0.00 | 0.00 | 0.00 | 39 | 1016.0 |
| 20260902000036 | 78 | 153 | 8.0 | 16.0 | 0.00 | 0.00 | 0.00 | 39 | 1015.7 |
| 20260901235530 | 78 | 153 | 7.0 | 16.0 | 0.00 | 0.00 | 0.00 | 38 | 1015.9 |
| 20260901235026 | 77 | 173 | 5.0 | 13.0 | 0.00 | 0.00 | 0.00 | 39 | 1015.9 |
| 20260901234524 | 77 | 176 | 4.0 | 11.0 | 0.00 | 0.00 | 0.00 | 39 | 1015.9 |
| 20260901234020 | 78 | 142 | 8.0 | 15.0 | 0.00 | 0.00 | 0.00 | 38 | 1015.9 |
| 20260901233519 | 78 | 159 | 13.0 | 20.0 | 0.00 | 0.00 | 0.00 | 37 | 1016.1 |
| 20260901233017 | 80 | 140 | 10.0 | 16.0 | 0.00 | 0.00 | 0.00 | 36 | 1015.9 |
| 20260901232517 | 79 | 148 | 9.0 | 16.0 | 0.00 | 0.00 | 0.00 | 37 | 1016.1 |
| 20260901232012 | 79 | 163 | 10.0 | 22.0 | 0.00 | 0.00 | 0.00 | 37 | 1016.1 |
| 20260901231508 | 78 | 172 | 7.0 | 21.0 | 0.00 | 0.00 | 0.00 | 37 | 1016.1 |
| 20260901231005 | 78 | 114 | 6.0 | 13.0 | 0.00 | 0.00 | 0.00 | 37 | 1016.0 |
| 20260901230504 | 80 | 149 | 13.0 | 23.0 | 0.00 | 0.00 | 0.00 | 35 | 1016.2 |
| 20260901225959 | 80 | 164 | 11.0 | 18.0 | 0.00 | 0.00 | 0.00 | 36 | 1016.1 |
| 20260901225500 | 80 | 164 | 5.0 | 15.0 | 0.00 | 0.00 | 0.00 | 37 | 1016.4 |
| 20260901224954 | 78 | 183 | 9.0 | 15.0 | 0.00 | 0.00 | 0.00 | 39 | 1016.4 |
| 20260901224450 | 78 | 132 | 8.0 | 20.0 | 0.00 | 0.00 | 0.00 | 40 | 1016.4 |
| 20260901223946 | 77 | 127 | 14.0 | 21.0 | 0.00 | 0.00 | 0.00 | 41 | 1016.7 |
| 20260901223442 | 77 | 160 | 8.0 | 20.0 | 0.00 | 0.00 | 0.00 | 42 | 1016.7 |
| 20260901222937 | 77 | 181 | 6.0 | 18.0 | 0.00 | 0.00 | 0.00 | 41 | 1016.6 |
| 20260901222433 | 76 | 130 | 9.0 | 19.0 | 0.00 | 0.00 | 0.00 | 42 | 1016.6 |
| 20260901221929 | 76 | 176 | 11.0 | 22.0 | 0.00 | 0.00 | 0.00 | 42 | 1016.8 |
| 20260901221425 | 76 | 163 | 8.0 | 15.0 | 0.00 | 0.00 | 0.00 | 42 | 1017.0 |
| 20260901220919 | 77 | 148 | 5.0 | 11.0 | 0.00 | 0.00 | 0.00 | 40 | 1017.0 |
| 20260901220418 | 77 | 166 | 4.0 | 17.0 | 0.00 | 0.00 | 0.00 | 41 | 1017.4 |
| 20260901215917 | 77 | 119 | 12.0 | 18.0 | 0.00 | 0.00 | 0.00 | 41 | 1017.6 |
| 20260901215416 | 77 | 170 | 5.0 | 15.0 | 0.00 | 0.00 | 0.00 | 40 | 1017.5 |
| 20260901214915 | 77 | 84 | 9.0 | 16.0 | 0.00 | 0.00 | 0.00 | 39 | 1017.3 |
| 20260901214414 | 76 | 110 | 15.0 | 23.0 | 0.00 | 0.00 | 0.00 | 41 | 1017.5 |
| 20260901213914 | 76 | 133 | 8.0 | 19.0 | 0.00 | 0.00 | 0.00 | 41 | 1017.7 |
| 20260901213409 | 75 | 161 | 8.0 | 16.0 | 0.00 | 0.00 | 0.00 | 41 | 1017.7 |
| 20260901212908 | 75 | 186 | 4.0 | 18.0 | 0.00 | 0.00 | 0.00 | 44 | 1018.1 |
| 20260901212404 | 75 | 125 | 22.0 | 22.0 | 0.00 | 0.00 | 0.00 | 43 | 1018.2 |
| 20260901211901 | 76 | 138 | 19.0 | 26.0 | 0.00 | 0.00 | 0.00 | 40 | 1018.3 |
| 20260901211401 | 77 | 161 | 13.0 | 46.0 | 0.00 | 0.00 | 0.00 | 36 | 1018.3 |
| 20260901210857 | 77 | 176 | 11.0 | 19.0 | 0.00 | 0.00 | 0.00 | 41 | 1018.1 |
| 20260901210352 | 78 | 165 | 13.0 | 24.0 | 0.00 | 0.00 | 0.00 | 40 | 1018.3 |
| 20260901205849 | 78 | 159 | 4.0 | 16.0 | 0.00 | 0.00 | 0.00 | 42 | 1018.2 |
| 20260901205348 | 77 | 157 | 11.0 | 22.0 | 0.00 | 0.00 | 0.00 | 40 | 1017.9 |
| 20260901204844 | 78 | 145 | 9.0 | 23.0 | 0.00 | 0.00 | 0.00 | 39 | 1017.9 |
| 20260901204340 | 78 | 153 | 8.0 | 16.0 | 0.00 | 0.00 | 0.00 | 42 | 1018.1 |
| 20260901203841 | 78 | 113 | 5.0 | 19.0 | 0.00 | 0.00 | 0.00 | 39 | 1018.1 |
| 20260901203334 | 78 | 116 | 11.0 | 14.0 | 0.00 | 0.00 | 0.00 | 41 | 1018.4 |